Location: Brabourne
(51.1333°N, 1.0000°E)
Time: 05:37:52
(UTC+00:00)

NOSS 3-1 (A) - Pass Details

Date: 29 October 2021
Orbit: 721 x 1491 km, 63.4° (Epoch: 22 November)

Event Time Altitude Azimuth Distance (km) Brightness Sun altitude
Rises 17:45:19 0° 215° (SW) 3,218 6.9 -11.5°
Reaches altitude 10° 17:47:34 10° 214° (SW) 2,352 6.1 -11.8°
Maximum altitude 17:52:55 75° 130° (SE) 913 3.3 -12.7°
Drops below altitude 10° 17:59:21 10° 46° (NE) 2,802 5.4 -13.7°
Enters shadow 17:59:24 10° 46° (NE) 2,822 5.5 -13.7°
